#timestamp,LO_Frequency,Hit,StdDev 
1616061615.5,286047001.1,N
1616061635.3,286046998.2,N
1616061655.2,286046998.1,N
1616061675.0,286046998.3,N
1616061675.9,286046998.3,N
1616061695.8,286046999.3,N
1616061715.6,286046996.5,N
1616061735.4,286046998.4,N
1616061755.3,286046999.4,N
1616061775.1,286046996.6,N
1616061795.8,286046997.7,N
1616061815.7,286046998.0,N
1616061835.5,286046996.6,N
1616061855.4,286046999.1,N
1616061875.2,286046999.2,N
1616061895.0,286046999.5,N
1616061895.9,286046999.5,N
1616061915.8,286046999.4,N
1616061935.6,286046998.4,N
1616061955.4,286047001.2,N
1616061975.3,286047000.8,N
1616061995.1,286047000.8,N
1616062015.9,286046998.1,N
1616062035.7,286046998.9,N
1616062055.5,286046998.3,N
1616062075.4,286046998.3,N
1616062095.2,286046998.2,N
1616062115.0,286046998.8,N
1616062115.9,286046998.8,N
1616062135.8,286047001.2,N
1616062155.6,286046998.1,N
1616062175.5,286046998.4,N
1616062195.3,286046998.5,N
1616062215.1,286046998.7,N
1616062235.9,286046998.8,N
1616062255.7,286046999.5,N
1616062275.5,286046998.8,N
1616062295.4,286046998.3,N
1616062315.2,286046999.3,N
1616062335.1,286046998.1,N
1616062336.0,286046998.1,N
1616062355.8,286046998.3,N
1616062375.6,286046999.0,N
1616062395.5,286046996.7,Y
1616062415.3,286046999.1,P
1616062435.1,286046999.3,P
1616062455.9,286046999.5,P
1616062475.7,286046998.8,Y
1616062495.6,286047001.1,P
1616062515.4,286046998.5,N
1616062535.2,286046998.6,N
1616062555.1,286047001.0,N
1616062556.0,286047001.0,N
1616062575.8,286047000.6,N
1616062595.7,286047001.0,N
1616062615.5,286046999.0,N
1616062635.3,286046999.0,N
1616062655.2,286046999.6,N
1616062675.9,286046997.3,N
1616062695.7,286046997.1,N
1616062715.6,286046996.5,N
1616062735.4,286046999.2,N
1616062755.2,286046999.2,N
1616062775.1,286046999.4,N
1616062776.0,286046999.4,N
1616062795.8,286046996.5,N
1616062815.7,286046998.8,N
1616062835.5,286046998.3,N
1616062855.3,286047000.6,N
1616062875.2,286047001.1,N
1616062895.0,286047000.5,N
1616062895.9,286047000.5,N
1616062915.7,286047000.3,N
1616062935.6,286047000.9,N
1616062955.4,286046998.1,N
1616062975.3,286047000.8,N
1616062995.1,286047000.4,N
1616062996.0,286047000.4,N
1616063015.8,286047000.7,N
1616063035.7,286047000.8,N
1616063055.5,286047000.7,N
1616063075.3,286047000.5,N
1616063095.2,286047000.9,N
1616063115.0,286047000.4,N
1616063115.9,286047000.4,N
1616063135.8,286047001.0,N
1616063155.6,286046999.9,N
1616063175.4,286047002.5,N
1616063195.3,286047004.4,Y
1616063215.1,286047003.8,P
1616063235.8,286047003.3,N
1616063255.7,286047005.5,P
1616063275.5,286047008.6,Y
1616063295.4,286047007.5,P
1616063315.2,286047005.2,N
1616063335.0,286047004.2,N
1616063335.9,286047004.2,N
1616063355.8,286047001.6,N
1616063375.6,286047001.4,N
1616063395.4,286047005.3,N
1616063415.3,286047005.4,N
1616063435.1,286047004.1,N
1616063455.9,286047001.6,N
1616063475.7,286047003.0,N
1616063495.5,286047005.7,Y
1616063515.4,286046999.0,P
1616063535.2,286046999.0,N
1616063555.0,286046997.4,N
1616063555.9,286046997.4,N
1616063575.8,286046997.5,N
1616063595.6,286046995.1,N
1616063615.5,286046995.1,N
1616063635.3,286046997.8,N
1616063655.1,286046996.7,N
1616063675.9,286046996.7,N
1616063695.7,286046997.2,N
1616063715.5,286046996.8,N
1616063735.4,286046999.1,N
1616063755.2,286046999.3,N
1616063775.1,286046997.0,N
1616063776.0,286046997.0,N
1616063795.8,286046997.2,N
1616063815.6,286046995.0,N
1616063835.5,286046994.9,N
1616063855.3,286046995.8,N
1616063875.1,286046995.9,N
1616063895.9,286046999.0,N
1616063915.7,286046999.9,N
1616063935.5,286047002.2,N
1616063955.4,286046998.3,N
1616063975.2,286046998.1,N
1616063995.1,286046998.1,N
1616063996.0,286046998.1,N
1616064015.8,286046998.6,N
1616064035.6,286046999.2,N
1616064055.5,286046997.1,N
1616064075.3,286046996.6,N
1616064095.1,286046996.9,N
1616064115.9,286046997.6,N
1616064135.7,286046995.4,N
1616064155.6,286046995.7,N
1616064175.4,286046993.4,Y
1616064195.2,286046996.8,P
1616064215.1,286046997.4,P
1616064216.0,286046997.4,P
1616064235.8,286046996.6,Y
1616064255.7,286047000.6,P
1616064275.5,286046998.5,N
1616064295.3,286047001.1,N
1616064315.2,286046998.5,N
1616064335.0,286046998.3,N
1616064335.9,286046998.3,N
1616064355.7,286047000.9,N
1616064375.6,286047000.8,N
1616064395.4,286046998.2,N
1616064415.3,286046999.0,N
1616064435.1,286047000.2,N
1616064436.0,286047000.2,N
1616064455.8,286047000.5,N
1616064475.7,286047000.8,N
1616064495.5,286047000.9,N
1616064515.3,286047000.6,N
1616064535.2,286047000.6,N
1616064555.0,286047000.0,N
1616064555.9,286047000.0,N
1616064575.8,286047002.5,N
1616064595.6,286047001.5,N
1616064615.4,286047004.1,Y
1616064635.3,286047005.2,P
1616064655.1,286047003.1,N
1616064675.8,286047005.7,N
1616064695.7,286047007.5,Y
1616064715.5,286047000.0,P
1616064735.4,286047000.5,N
1616064755.2,286047000.4,N
1616064775.0,286047000.7,N
1616064775.9,286047000.7,N
1616064795.8,286047000.5,N
1616064815.6,286047000.8,N
1616064835.4,286047001.1,N
1616064855.3,286046999.0,N
1616064875.1,286046997.3,N
1616064895.9,286046996.8,N
1616064915.7,286046996.1,N
1616064935.5,286046995.0,N
1616064955.4,286046998.0,N
1616064975.2,286046994.9,N
1616064995.0,286046997.7,N
1616064995.9,286046997.7,N
1616065015.8,286046997.6,N
1616065035.6,286046995.4,N
1616065055.5,286046995.9,N
1616065075.3,286046993.6,N
1616065095.1,286046994.6,N
1616065115.9,286046991.8,Y
1616065135.7,286046993.7,P
1616065155.5,286046993.7,N
1616065175.4,286046993.3,P
1616065195.2,286046995.7,N
